EAL700 EHEH-EGVN

Flight info

Callsign EAL700
Flight time N/A
Altitude 36000
Route DCT
Aircraft B772/H-SDE2E3FGHIJ5LORVWXY/LB1D1

Departure

Time N/A
Airport Eindhoven Airport (EHEH)

Arrival

Time 2026-05-06 08:25
Airport RAF Brize Norton (EGVN)
Time Latitude Longitude Altitude Speed Heading
2026-05-06 08:16 51.59584 -1.95840 6749 ft 265 kts 79°
2026-05-06 08:17 51.59864 -1.92912 6455 ft 263 kts 79°
2026-05-06 08:17 51.60349 -1.90144 6088 ft 254 kts 55°
2026-05-06 08:17 51.61583 -1.88230 6049 ft 248 kts 32°
2026-05-06 08:17 51.63060 -1.86727 6041 ft 255 kts 31°
2026-05-06 08:18 51.64566 -1.85261 6032 ft 249 kts 28°
2026-05-06 08:18 51.66042 -1.83933 6006 ft 236 kts 27°
2026-05-06 08:18 51.67432 -1.82691 5986 ft 222 kts 27°
2026-05-06 08:18 51.68741 -1.81521 5650 ft 209 kts 27°
2026-05-06 08:19 51.69985 -1.80407 5302 ft 204 kts 27°
2026-05-06 08:19 51.71028 -1.79488 5261 ft 206 kts 27°
2026-05-06 08:19 51.72235 -1.78426 5037 ft 200 kts 26°
2026-05-06 08:19 51.73519 -1.77712 4712 ft 194 kts 359°
2026-05-06 08:20 51.74784 -1.78384 4339 ft 191 kts 317°
2026-05-06 08:20 51.75275 -1.80215 4004 ft 193 kts 267°
2026-05-06 08:20 51.74713 -1.82223 3546 ft 199 kts 223°
2026-05-06 08:20 51.73510 -1.83254 3153 ft 201 kts 188°
2026-05-06 08:21 51.72124 -1.83068 2748 ft 196 kts 154°
2026-05-06 08:21 51.71044 -1.82006 2696 ft 175 kts 129°
2026-05-06 08:21 51.70540 -1.80244 2160 ft 175 kts 89°
2026-05-06 08:21 51.70815 -1.78456 1894 ft 159 kts 61°
2026-05-06 08:22 51.71293 -1.77022 1785 ft 144 kts 62°
2026-05-06 08:22 51.71637 -1.75600 1677 ft 145 kts 68°
2026-05-06 08:22 51.71982 -1.74068 1582 ft 146 kts 68°
2026-05-06 08:22 51.72326 -1.72515 1740 ft 147 kts 70°
2026-05-06 08:23 51.72647 -1.71034 1781 ft 138 kts 67°
2026-05-06 08:23 51.72965 -1.69594 1682 ft 137 kts 69°
2026-05-06 08:23 51.73256 -1.68089 1445 ft 140 kts 72°
2026-05-06 08:23 51.73468 -1.66633 1148 ft 130 kts 70°
2026-05-06 08:24 51.73734 -1.65149 945 ft 142 kts 70°
2026-05-06 08:24 51.74032 -1.63610 800 ft 146 kts 70°
2026-05-06 08:24 51.74299 -1.62088 572 ft 133 kts 72°
2026-05-06 08:24 51.74556 -1.60676 367 ft 132 kts 70°
2026-05-06 08:25 51.74820 -1.59274 301 ft 124 kts 71°
2026-05-06 08:25 51.75036 -1.58096 283 ft 92 kts 73°
2026-05-06 08:25 51.75176 -1.57293 275 ft 57 kts 73°
2026-05-06 08:25 51.75258 -1.56870 270 ft 26 kts 72°
2026-05-06 08:26 51.75350 -1.56700 270 ft 15 kts 346°
2026-05-06 08:26 51.75452 -1.56752 271 ft 15 kts 341°
2026-05-06 08:26 51.75554 -1.56803 271 ft 15 kts 348°
2026-05-06 08:26 51.75628 -1.56708 270 ft 12 kts 71°
2026-05-06 08:27 51.75636 -1.56663 270 ft 0 kts 74°